Miscellaneous Local Product
Issued by NWS Hastings, NE

Home | Current Version | Previous Version | Graphics & Text | Print | Product List | Glossary On
Versions: 1 2 3 4 5 6 7 8 9 10 11 12 13 14 15 16 17 18 19 20 21 22 23 24 25 26 27 28 29 30 31 32 33 34 35 36 37 38 39 40 41 42 43 44 45 46 47 48 49 50
000
AXUS43 KGID 261802
MISGRI

GID CWA HOURLY WEATHER ROUNDUP
NATIONAL WEATHER SERVICE HASTINGS NE
100 PM CDT TUE JUL 26 2016

NOTE: "FAIR" INDICATES FEW OR NO CLOUDS BELOW 12,000 FEET WITH NO
SIGNIFICANT WEATHER AND/OR OBSTRUCTIONS TO VISIBILITY.

...SOUTH CENTRAL NEBRASKA...

CITY           SKY/WX    TMP DP  RH WIND       PRES   REMARKS
GRAND ISLAND   SUNNY     83  64  52 SE13      30.08F
HASTINGS       SUNNY     84  65  52 S8        30.08F
KEARNEY        SUNNY     82  64  54 S13       30.08F
ORD            SUNNY     82  63  52 SE10      30.05F
YORK           SUNNY     82  66  57 SE8       30.08F
AURORA         SUNNY     83  64  52 S7        30.08F
LEXINGTON      SUNNY     82  66  58 SE13G18   30.06F
HOLDREGE       SUNNY     80  64  58 S10       30.08F
HEBRON         SUNNY     84  63  49 SE5       30.07F

...NEBRASKA PANHANDLE...

CITY           SKY/WX    TMP DP  RH WIND       PRES   REMARKS
CHADRON        SUNNY     86  60  41 VRB5      30.02F
ALLIANCE       SUNNY     85  63  47 SE10      30.05F
SCOTTSBLUFF    SUNNY     87  54  32 N6        30.05F
SIDNEY         SUNNY     89  57  33 S10G20    30.10F

...WESTERN AND NORTH CENTRAL NEBRASKA...

CITY           SKY/WX    TMP DP  RH WIND       PRES   REMARKS
VALENTINE      CLOUDY    88  62  41 W9        30.05F
AINSWORTH      MOSUNNY   85  67  54 SW7       30.09R
ONEILL         SUNNY     86  57  36 S13       30.07S
BROKEN BOW     SUNNY     82  66  58 S14G23    30.07F
IMPERIAL       SUNNY     86  64  47 S16G24    30.06F
NORTH PLATTE   SUNNY     84  67  56 S9        30.06S
MCCOOK         SUNNY     87  65  47 S15       30.05F

...EASTERN NEBRASKA...

CITY           SKY/WX    TMP DP  RH WIND       PRES   REMARKS
NORFOLK        SUNNY     82  66  58 S8        30.07F
SO SIOUX CITY  SUNNY     86  66  51 S13       30.06F
TEKAMAH        SUNNY     85  64  49 SE13      30.06F
COLUMBUS       SUNNY     82  64  54 S9        30.07F
ALBION         SUNNY     81  66  59 SE10      30.07F
OMAHA EPPLEY   PTSUNNY   85  62  46 E5        30.07F
OFFUTT AFB     SUNNY     84  64  50 SE7       30.07F
MILLARD        SUNNY     83  65  54 SE3       30.07F
LINCOLN        SUNNY     86  66  51 SE7       30.08F
NEBRASKA CITY  SUNNY     82  62  51 SE7       30.09S
BEATRICE       SUNNY     85  64  49 E7        30.07S
FALLS CITY     SUNNY     84  68  58 SE8       30.06F

...NORTHERN KANSAS...

CITY           SKY/WX    TMP DP  RH WIND       PRES   REMARKS
GOODLAND       SUNNY     80  67  64 S17       30.10F
HILL CITY      SUNNY     83  67  58 VRB7      30.07F
NORTON         CLEAR     86  61  42 SE12      30.07F
SMITH CENTER   SUNNY     84  64  51 SE5       30.07F
BELOIT         SUNNY     82  70  65 E7        30.05F
HAYS           SUNNY     81  64  57 S5        30.08S
RUSSELL        MOSUNNY   85  68  56 NE3       30.05F
CONCORDIA      MOSUNNY   83  69  62 E5        30.07F
SALINA         PTSUNNY   88  70  55 E8        30.05F HX  93
TOPEKA         SUNNY     85  66  53 E8        30.05F



USA.gov is the U.S. government's official web portal to all federal, state and local government web resources and services.